This is the latest recevied weather packets stored in our database for station/object DL7MAP-13. If no packets are shown the sender has not sent any weather packets the latest 10 day(s).
| Time | Temp. | Humidity | Pressure | Rain* | Wind** | Luminosity | Snow |
|---|---|---|---|---|---|---|---|
| 1778015587 | 12.78° C | 83% | 1002.8 hPa | - | - | - | - |
| 1778014687 | 13.33° C | 83% | - | - | - | - | - |
| 1778013787 | 13.33° C | 83% | - | - | - | - | - |
| 1778012887 | 13.33° C | 83% | - | - | - | - | - |
| 1778011987 | 13.33° C | 83% | - | - | - | - | - |
| 1778011087 | 13.89° C | 82% | 1002.3 hPa | - | - | - | - |
| 1778010187 | 14.44° C | 82% | 1002.4 hPa | - | - | - | - |
| 1778009287 | 14.44° C | 81% | 1002.6 hPa | - | - | - | - |
| 1778008387 | 15° C | 80% | 1002.4 hPa | - | - | - | - |
| 1778007487 | 15° C | 80% | 1002.1 hPa | - | - | - | - |
| 1778006588 | 15.56° C | 79% | 1002.2 hPa | - | - | - | - |
| 1778005687 | 16.11° C | 78% | 1001.9 hPa | - | - | - | - |
| 1778004787 | 16.11° C | 77% | 1002.5 hPa | - | - | - | - |
| 1778003887 | 16.67° C | 76% | 1002.4 hPa | - | - | - | - |
| 1778002987 | 16.67° C | 76% | 1002.3 hPa | - | - | - | - |
| 1778002087 | 17.22° C | 75% | 1002.1 hPa | - | - | - | - |
| 1778001187 | 17.78° C | 74% | 1002.1 hPa | - | - | - | - |
| 1778000287 | 17.78° C | 73% | 1002.1 hPa | - | - | - | - |
| 1777999387 | 18.33° C | 72% | 1002.6 hPa | - | - | - | - |
| 1777998487 | 17.78° C | 72% | 1002.5 hPa | - | - | - | - |
| 1777997587 | 17.78° C | 73% | 1002.3 hPa | - | - | - | - |
| 1777996687 | 17.78° C | 73% | 1002.5 hPa | - | - | - | - |
| 1777995787 | 17.78° C | 73% | 1002.8 hPa | - | - | - | - |
| 1777994887 | 18.33° C | 71% | 1003 hPa | - | - | - | - |
| 1777993987 | 18.89° C | 71% | 1002.8 hPa | - | - | - | - |
* Rain since midnight (hover to see other rain measurements)
** Current wind speed in m/s (hover to see current wind gust speed)